Location: 5810 Zion Rd, Cleves, OH 45002, USA
(39.1922°N, 84.7113°W)
Time: 23:21:33
(UTC-05:00)

Courier 1B Rocket - Pass Details

Date: 15 December 2019
Orbit: 920 x 1202 km, 28.2° (Epoch: 19 January)

Event Time Altitude Azimuth Distance (km) Brightness Sun altitude
Rises 03:24:27 0° 212° (SSW) 4,051 - -50.6°
Reaches altitude 10° 03:28:33 10° 192° (SSW) 3,054 - -49.9°
Maximum altitude 03:32:54 16° 157° (SSE) 2,559 - -49.0°
Exits shadow 03:36:19 12° 127° (SE) 2,814 7.7 -48.4°
Drops below altitude 10° 03:37:07 10° 121° (ESE) 2,950 7.9 -48.2°
Sets 03:40:58 0° 101° (E) 3,850 8.8 -47.5°
